Location: Kuppenheim
(48.8299°N, 8.2568°E)
Time: 09:18:28
(UTC+00:00)

Cosmos 1937 Rocket - Pass Details

Date: 20 June 2021
Orbit: 746 x 780 km, 74.0° (Epoch: 02 August)

Event Time Altitude Azimuth Distance (km) Brightness Sun altitude
Rises 00:25:47 0° 336° (NNW) 3,277 7.6 -16.6°
Reaches altitude 10° 00:28:10 10° 336° (NNW) 2,346 6.8 -16.5°
Maximum altitude 00:33:31 87° 250° (WSW) 789 3.5 -16.3°
Enters shadow 00:37:20 20° 161° (SSE) 1,758 4.9 -16.1°
